www.pogodaiklimat.ru
ПОГОДА в Уотервилле
Время
и дата
21:56 29.01
22:56 29.01
23:56 29.01
00:56 30.01
01:56 30.01
02:56 30.01
03:56 30.01
04:56 30.01
05:54 30.01
05:56 30.01
06:56 30.01
07:56 30.01
08:56 30.01
09:56 30.01
10:56 30.01
11:56 30.01
12:56 30.01
13:56 30.01
14:56 30.01
15:56 30.01
16:56 30.01
17:56 30.01
18:56 30.01
19:56 30.01
20:56 30.01
21:19 30.01
21:56 30.01
22:14 30.01
22:26 30.01
22:33 30.01
22:56 30.01
23:18 30.01
23:28 30.01
23:34 30.01
23:47 30.01
23:56 30.01
00:23 31.01
00:56 31.01
01:01 31.01
01:25 31.01
01:44 31.01
01:56 31.01
02:56 31.01
03:56 31.01
04:56 31.01
05:56 31.01
06:56 31.01
07:56 31.01
Ветер
(напр.,м/с)
Видим. Явления Облачность Т
(С)
Тd
(С)
f
(%)
Тe
(С)
Тes
(С)
Комфортность P
(гПа)
Po
(гПа)
Тmin
(С)
Tmax
(С)
R
(мм)
R24
(мм)
S
(см)
штиль 0 13 км 10/0 2100 m
[Ac]
0.0 -0.6 96 -1 -1 1017.7 1002.2
штиль 0 13 км 10/0 2700 m
[Ac]
-0.6 -0.6 100 -2 -2 1018.0 1002.6
ЮЗ 3 16 км 10/0 2400 m
[Ac]
0.0 0.0 100 -5 -5 1018.0 1002.6
Ю 2 16 км 10/0 2100 m
[Ac]
+0.6 0.0 96 -3 -3 1017.6 1002.2 -0.6 +1.7
штиль 0 16 км 10/0 2100 m
[Ac]
0.0 -0.6 96 -1 -1 1018.3 1002.9
С 3 16 км 10/10 1950 м +0.6 -0.6 92 -4 -4 1019.2 1003.6
СЗ 5 16 км 10/10 1110 м +1.7 -0.6 85 -4 -4 1020.7 1005.2
С 5 16 км 8/8 660 м -0.6 -2.2 89 -7 -7 1022.5 1006.9
С 4 16 км 8/8 660 м -3.0 -5.0 86 -9 -9 1007.2
С 5 16 км 8/8 660 м -2.8 -5.0 85 -10 -10 1022.9 1007.2
С 5 16 км ясно -3.9 -7.8 74 -11 -11 1023.8 1008.3 -3.9 +1.7 0.5
С 5 16 км ясно -5.0 -8.9 74 -12 -12 1024.7 1008.9
СВ 5 16 км ясно -2.8 -8.3 66 -9 -9 1024.9 1009.3
СВ 3 16 км ясно -1.7 -8.9 58 -6 -4 1024.8 1009.3
СВ 3 16 км ясно -0.6 -8.9 53 -5 -2 1024.5 1008.9
СВ 2 16 км 10/10 1080 м -1.1 -8.9 55 -4 -4 1023.9 1008.3
штиль 0 16 км 10/10 1020 м +0.6 -7.8 53 0 0 1023.1 1007.6 -5.0 +0.6
С 2 16 км 10/10 1020 м -1.7 -8.9 58 -5 -5 1021.9 1006.2
С 3 16 км 10/10 960 м -1.7 -8.3 61 -6 -6 1022.3 1006.6
нст 2 16 км 10/10 1020 м -1.7 -8.3 61 -5 -5 1022.1 1006.6
нст 2 16 км 10/10 1080 м -1.7 -8.9 58 -5 -5 1021.7 1005.9
СВ 2 16 км 10/10 1020 м -2.2 -8.9 60 -6 -6 1021.7 1006.2
С 3 11 км слабый снег 10/10 960 m
[Ns]
-2.8 -7.8 68 -8 -8 1022.3 1006.6 -2.8 +1.1
СВ 5 14 км слабый снег 10/10 960 m
[Ns]
-3.3 -7.2 74 -10 -10 1021.9 1006.2
С 4 10 км слабый снег 10/10 900 m
[Ns]
-3.9 -6.7 81 -10 -10 1022.1 1006.6
СВ 5 3 км слабый снег, дымка 10/10 900 m
[Ns]
-4.0 -6.0 86 -11 -11 1006.2
С 4 5 км слабый снег, дымка 10/10 570 m
[Ns]
-4.4 -6.1 88 -11 -11 1021.9 1006.2
С 4 4 км слабый снег, дымка 10/10 840 m
[Ns]
-4.0 -6.0 86 -10 -10 1006.2
С 3 5 км слабый снег, дымка 10/10 840 m
[Ns]
-4.0 -6.0 86 -9 -9 1006.2
СВ 3 3 км слабый снег, дымка 10/10 840 m
[Ns]
-4.0 -6.0 86 -9 -9 1005.9
СВ 3 2 км слабый снег, дымка 10/10 840 m
[Ns]
-4.4 -6.1 88 -10 -10 1021.6 1005.9
СВ 3 3 км слабый снег, дымка 10/10 840 m
[Ns]
-5.0 -6.0 93 -11 -11 1005.9
СВ 3 3 км слабый снег, дымка 10/10 630 m
[Ns]
-5.0 -6.0 93 -11 -11 1005.9
С 4 3 км слабый снег, дымка 10/10 570 m
[Ns]
-5.0 -6.0 93 -12 -12 1005.9
С 3 6 км слабый снег, дымка 10/10 570 m
[Ns]
-5.0 -6.0 93 -11 -11 1005.6
С 4 5 км слабый снег, дымка 10/10 570 m
[Ns]
-5.0 -6.1 92 -12 -12 1021.1 1005.6
С 4 6 км слабый снег, дымка 10/10 240 m
[Ns]
-5.0 -6.0 93 -12 -12 1005.6
С 4 4 км слабый снег, дымка 10/10 240 m
[Ns]
-5.0 -6.1 92 -12 -12 1020.9 1005.2 -5.0 -2.8
С 4 5 км слабый снег, дымка 10/10 240 m
[Ns]
-5.0 -6.0 93 -12 -12 1005.2
СВ 4 6 км слабый снег, дымка 10/10 240 m
[Ns]
-6.0 -6.0 100 -13 -13 1004.9
СВ 2 6 км слабый снег, дымка 10/10 240 m
[Ns]
-6.0 -6.0 100 -11 -11 1005.2
С 4 8 км слабый снег, дымка 10/10 240 m
[Ns]
-5.6 -6.7 92 -12 -12 1020.8 1005.2
С 3 8 км слабый снег, дымка 10/10 210 m
[Ns]
-5.6 -6.7 92 -11 -11 1021.1 1005.6
С 4 11 км слабый снег 10/10 1260 m
[Ns]
-6.1 -7.2 92 -13 -13 1021.3 1005.6
СВ 2 13 км слабый снег 10/10 1140 m
[Ns]
-6.1 -7.2 92 -11 -11 1021.0 1005.2
штиль 0 16 км 10/0 2700 m
[Ac]
-6.1 -7.2 92 -7 -7 1021.1 1005.6
штиль 0 16 км 10/0 2550 m
[Ac]
-6.7 -7.8 92 -8 -8 1021.9 1006.2 -6.7 -5.0
З 2 16 км 8/0 2250 m
[Ac]
-8.9 -10.0 92 -13 -13 1022.6 1006.9
Местоположение метеостанции Waterville Robert LaFleur Airport: широта 44.5333 долгота -69.6833 высота над уровнем моря 102 м.
В архиве по умолчанию представлена погода в Уотервилле за последние 1-2 суток. Обновление информации о фактической погоде в базе происходит ежечасно! Архивные данные за месяц целиком и за предыдущие месяцы Вы можете получить, выбрав интересующий диапазон дат из раскрывающегося списка и нажав кнопку "Ввод!".
Внимание! Архив погоды МЕТАР в базе сайта по станциям, не включенным в климатический монитор, хранится не более 60 дней. Нет смысла пытаться выбрать более раннюю дату.
*Определитесь, кто Вы:
Внимание! Время в таблицах - местное (без учета летнего времени). Для получения всемирного времени необходимо вычесть поправку, которая равна -5 ч.
Смотрите также архив погоды в соседних городах и на ближайших метеорологических станциях:
Партнеры нашего сайта:      
Пояснения к столбцам:
  • Ветер - указаны скорость ветра в м/с - средняя за 10 мин, порывы в срок и между сроками (в фигурных скобках) и направление, откуда дует ветер: С - северный,
  • СВ - северо-восточный, В - восточный, ЮВ - юго-восточный, Ю - южный, ЮЗ - юго-западный, З - западный, СЗ - северо-западный.
  • Видимость - горизонтальная дальность видимости в метрах или километрах. При видимости от 1 до 10 км при отсутствии осадков обычно наблюдается дымка, при ухудшении видимости до 1 км и менее - туман. В сухую погоду видимость может ухудшаться дымом, пылью или мглою.
  • Явления - указаны атмосферные явления, наблюдавшиеся в срок или в последний час перед сроком; фигурными скобками обозначены явления, наблюдавшиеся между сроками (за 1-3 часа до срока); квадратными скобками обозначены град или гололедные отложения с указанием их диаметра в мм.
  • Облачность - указаны через наклонную черту общая и нижняя облачность в баллах и высота нижней границы облаков в метрах; квадратными скобками обозначены формы облаков: Ci - перистые, Cs - перисто-слоистые, Cc - перисто-кучевые, Ac - высококучевые, As - высокослоистые, Sc - слоисто-кучевые, Ns - слоисто-дождевые, Cu - кучевые, Cb - кучево-дождевые. Подробнее классификацию облаков см. в Атласе облаков (PDF).
  • T - Температура воздуха - температура, измеренная на высоте 2 м над землей.
  • Td - Температура точки росы - температура, при понижении до которой содержащийся в воздухе водяной пар достигнет насыщения.
  • f - Относительная влажность воздуха - влажноcть воздуха, измеренная на высоте 2 м над землей.
  • Te - Эффективная температура - температура, которую ощущает одетый по сезону человек в тени. Характеристика душности погоды. При расчете учитывается влияние влажности воздуха и скорости ветра на теплоощущения человека.
  • Tes - Эффективная температура на солнце - температура, которую ощущает человек, с поправкой на солнечный нагрев. Характеристика знойности погоды. Зависит от высоты солнца над горизонтом, облачности и скорости ветра. Ночью, в пасмурную погоду, а также при ветре 12 м/с и более поправка равна нулю.
  • P - Атмосферное давление - приведенное к уровню моря атмосферное давление.
  • Po - Атмосферное давление - измеренное на уровне метеостанции атмосферное давление.
  • Tmin - Минимальная температура - минимум температуры воздуха на высоте 2 м над землей.
  • Tmax - Максимальная температура - максимум температуры воздуха на высоте 2 м над землей.
  • R - Количество осадков - Количество выпавших осадков за период времени, мм. При наведении курсора мыши на число - период времени, за который выпало указанное количество осадков.
  • R24 - Количество осадков - Количество выпавших осадков за 24 часа, мм.
  • S - Снежный покров - Высота снежного покрова, см. При наведении курсора мыши на число - состояние снежного покрова и степень покрытия местности в баллах.